{"data":{"norad_id":62188,"intl_designator":"2024-227A","name":"TJS-13","alt_names":[],"object_type":"PAYLOAD","status":"ACTIVE","operator":null,"country":"PRC","launch_date":"2024-12-03","launch_site_code":"XICLF","launch_vehicle":null,"mission":null,"orbit_class":"UNKNOWN","rcs_meters":null,"size_class":null,"mass_kg":null,"dimensions":null,"purposes":[],"wikipedia_slug":null,"has_3d_model":false,"image_url":null,"decayed_at":null,"tle_current":{"epoch":"2026-09-19T14:36:41.232384Z","epoch_age_seconds":389931,"freshness":"STALE","line1":"1 62188U 24227A   26262.60881056  .00000518  00000+0  00000+0 0  9996","line2":"2 62188  63.8372  27.5816 6979521 269.4012  17.4561  2.00626286 13143","mean_motion":2.00626286,"eccentricity":0.6979521,"inclination_deg":63.8372,"raan_deg":27.5816,"arg_perigee_deg":269.4012,"mean_anomaly_deg":17.4561,"bstar":0,"rev_number":1314,"period_min":717.75240857522,"perigee_km":1642.6892065359,"apogee_km":38710.667461553,"semimajor_km":26554.815334044,"source":"CELESTRAK","updated_at":"2026-09-23T09:00:21.292890Z"}}}